Weather History for Port Isabel, TX

Change the Weather History Date:

Saturday, February 16, 2013

  Actual Average Record
Temperature  
Mean Temperature 58 °F -  
Max Temperature 66 °F - - ()
Min Temperature 48 °F - - ()
Degree Days  
Heating Degree Days 7    
Growing Degree Days 8 (Base 50)    
Moisture  
Dew Point 42 °F    
Average Humidity 55    
Maximum Humidity 74    
Minimum Humidity 34    
Precipitation  
Precipitation 0.00 in - - ()
Sea Level Pressure  
Sea Level Pressure 30.36 in    
Wind  
Wind Speed 13 mph (NNE)    
Max Wind Speed 23 mph    
Max Gust Speed 32 mph    
Visibility 10 miles    
Events      
T = Trace of Precipitation, MM = Missing Value Source: NWS Daily Summary

Daily Weather History Graph

Daily Weather History Graph

Search for Another Location

Airport:

Trip Planner

Search our weather history database for the weather conditions in past years. The results will help you decide how hot, cold, wet, or windy it might be!

Date:

Astronomy

Feb. 16, 2013 Rise Set
Actual Time 7:03 AM CST 6:23 PM CST
Civil Twilight 6:40 AM CST 6:46 PM CST
Nautical Twilight 6:13 AM CST 7:13 PM CST
Astronomical Twilight 5:46 AM CST 7:40 PM CST
Moon 10:59 AM CST (2/16) No Moon Set
Length of Visible Light 12h 06m
Length of Day
11h 19m
Waxing Crescent, 39% of the Moon is Illuminated
Feb 16
Waxing Crescent
Feb 17
First Quarter
Feb 25
Full
Mar 4
Last Quarter
Mar 11
New

Hourly Weather History & Observations

Time (CST) Temp. Dew Point Humidity Pressure Visibility Wind Dir Wind Speed Gust Speed Precip Events Conditions
12:53 AM 60.1 °F 51.1 °F 72% 30.25 in 10.0 mi NNW 5.8 mph - N/A   Overcast
1:53 AM 64.0 °F 52.0 °F 65% 30.27 in 10.0 mi North 10.4 mph - N/A   Overcast
2:53 AM 62.1 °F 51.1 °F 67% 30.29 in 10.0 mi North 19.6 mph 29.9 mph 0.00 in   Overcast
3:41 AM 60.8 °F 48.2 °F 63% 30.32 in 10.0 mi North 23.0 mph 32.2 mph N/A   Overcast
3:53 AM 60.1 °F 48.0 °F 64% 30.32 in 10.0 mi North 23.0 mph 31.1 mph N/A   Overcast
4:53 AM 59.0 °F 46.0 °F 62% 30.34 in 10.0 mi North 23.0 mph 29.9 mph N/A   Overcast
5:53 AM 57.9 °F 46.0 °F 65% 30.37 in 10.0 mi North 19.6 mph 25.3 mph N/A   Mostly Cloudy
6:53 AM 57.0 °F 46.0 °F 67% 30.39 in 10.0 mi North 12.7 mph - N/A   Overcast
7:53 AM 55.9 °F 43.0 °F 62% 30.43 in 10.0 mi NNW 12.7 mph - N/A   Mostly Cloudy
8:53 AM 57.9 °F 43.0 °F 58% 30.44 in 9.0 mi North 10.4 mph - N/A   Partly Cloudy
9:53 AM 62.1 °F 42.1 °F 48% 30.45 in 9.0 mi North 13.8 mph - N/A   Clear
10:53 AM 62.1 °F 41.0 °F 46% 30.46 in 9.0 mi North 18.4 mph 25.3 mph N/A   Clear
11:53 AM 63.0 °F 41.0 °F 45% 30.45 in 9.0 mi North 18.4 mph 23.0 mph N/A   Clear
12:53 PM 63.0 °F 41.0 °F 45% 30.42 in 9.0 mi NNE 15.0 mph 26.5 mph N/A   Clear
1:53 PM 66.0 °F 39.0 °F 37% 30.38 in 9.0 mi North 13.8 mph 23.0 mph N/A   Clear
2:53 PM 64.9 °F 37.9 °F 37% 30.36 in 9.0 mi North 11.5 mph - N/A   Clear
3:53 PM 64.0 °F 35.1 °F 34% 30.34 in 9.0 mi NE 12.7 mph - N/A   Clear
4:53 PM 63.0 °F 37.0 °F 38% 30.33 in 9.0 mi ENE 10.4 mph - N/A   Clear
5:53 PM 61.0 °F 37.9 °F 42% 30.32 in 9.0 mi ENE 8.1 mph - N/A   Clear
6:53 PM 55.9 °F 39.0 °F 53% 30.32 in 10.0 mi ENE 6.9 mph - N/A   Clear
7:53 PM 55.9 °F 39.0 °F 53% 30.32 in 10.0 mi East 6.9 mph - N/A   Clear
8:53 PM 55.0 °F 39.0 °F 55% 30.33 in 10.0 mi ESE 6.9 mph - N/A   Clear
9:53 PM 50.0 °F 39.0 °F 66% 30.34 in 10.0 mi South 5.8 mph - N/A   Clear
10:53 PM 50.0 °F 39.9 °F 68% 30.34 in 10.0 mi South 6.9 mph - N/A   Clear
11:53 PM 48.0 °F 39.9 °F 74% 30.32 in 10.0 mi SSE 5.8 mph - N/A   Clear